Date String (YYYY-MM-DD hh:mm:ss) UTC,Instrument flags,Ambient pressure (hPa),Sample flow (lpm),Bypass flow (lpm),Sample temperature (°C),Ambient temperature (°C),ASC tube jacket temperature (°C),LED temperature (°C),Box temperature (°C),Sample RH (%),Span deviation,Mass concentration (μg/m³),Mass concentration (μg/m³),Mass concentration (μg/m³)
DateTimeUTC,F1_M11,P_M11,Q1_M11,Q2_M11,T1_M11,T2_M11,T3_M11,T4_M11,T5_M11,U1_M11,ZSPAN_M11,X0_M11,X2_M11,X1_M11
2022-02-12 22:00:00,,0830.1,4.99,0.00,25.4,24.6,00.0,34.3,27.3,06.4,0000.0,0006.27,0002.72,0002.13
2022-02-12 22:01:00,,0830.1,5.02,0.00,25.4,24.6,00.0,34.3,27.3,06.6,0000.0,0006.31,0002.75,0002.13
2022-02-12 22:02:00,,0830.1,4.99,0.00,25.4,24.6,00.0,34.3,27.3,06.9,0000.0,0006.19,0002.71,0002.09
2022-02-12 22:03:00,,0830.0,5.02,0.00,25.4,24.6,00.0,34.3,27.3,06.5,0000.0,0005.40,0002.61,0002.02
2022-02-12 22:04:00,,0830.0,4.99,0.00,25.4,24.6,00.0,34.3,27.3,06.5,0000.0,0005.47,0002.51,0001.93
2022-02-12 22:05:00,,0830.0,5.00,0.00,25.4,24.6,00.0,34.3,27.3,07.0,0000.0,0006.22,0002.40,0001.86
2022-02-12 22:06:00,,0830.0,4.99,0.00,25.4,24.6,00.0,34.3,27.3,07.2,0000.0,0005.99,0002.38,0001.82
2022-02-12 22:07:00,,0830.0,4.99,0.00,25.4,24.6,00.0,34.3,27.3,07.8,0000.0,0005.91,0002.36,0001.83
2022-02-12 22:08:00,,0830.0,5.01,0.00,25.4,24.6,00.0,34.3,27.3,08.3,0000.0,0005.89,0002.40,0001.90
2022-02-12 22:09:00,,0830.0,5.00,0.00,25.4,24.6,00.0,34.3,27.3,08.1,0000.0,0005.78,0002.43,0001.97
2022-02-12 22:10:00,,0830.0,5.01,0.00,25.4,24.6,00.0,34.3,27.3,08.2,0000.0,0005.82,0002.42,0002.02
2022-02-12 22:11:00,,0830.1,5.00,0.00,25.4,24.6,00.0,34.3,27.3,08.6,0000.0,0005.64,0002.37,0002.03
2022-02-12 22:12:00,,0830.0,5.00,0.00,25.4,24.6,00.0,34.3,27.3,08.1,0000.0,0005.56,0002.35,0002.05
2022-02-12 22:13:00,,0830.0,5.01,0.00,25.4,24.6,00.0,34.3,27.3,07.2,0000.0,0005.57,0002.37,0002.06
2022-02-12 22:14:00,,0830.0,4.99,0.00,25.4,24.6,00.0,34.3,27.3,06.4,0000.0,0005.61,0002.39,0002.05
2022-02-12 22:15:00,,0830.0,5.01,0.00,25.4,24.6,00.0,34.3,27.3,06.6,0000.0,0005.57,0002.40,0002.05
2022-02-12 22:16:00,,0830.0,4.98,0.00,25.4,24.6,00.0,34.3,27.3,07.1,0000.0,0004.43,0002.42,0002.07
2022-02-12 22:17:00,,0830.1,5.01,0.00,25.4,24.6,00.0,34.3,27.3,07.5,0000.0,0003.93,0002.45,0002.10
2022-02-12 22:18:00,,0830.1,5.01,0.00,25.4,24.6,00.0,34.3,27.3,08.3,0000.0,0004.79,0002.52,0002.14
2022-02-12 22:19:00,,0830.2,5.00,0.00,25.4,24.6,00.0,34.3,27.2,08.2,0000.0,0005.76,0002.53,0002.13
2022-02-12 22:20:00,,0830.2,4.99,0.00,25.4,24.6,00.0,34.3,27.3,07.8,0000.0,0006.23,0002.49,0002.09
2022-02-12 22:21:00,,0830.2,4.99,0.00,25.4,24.6,00.0,34.3,27.3,07.6,0000.0,0006.45,0002.45,0002.05
2022-02-12 22:22:00,,0830.2,5.01,0.00,25.4,24.6,00.0,34.3,27.3,07.7,0000.0,0006.54,0002.49,0002.02
2022-02-12 22:23:00,,0830.2,5.00,0.00,25.4,24.6,00.0,34.3,27.3,07.1,0000.0,0008.61,0002.53,0001.98
2022-02-12 22:24:00,,0830.2,5.00,0.00,25.4,24.6,00.0,34.3,27.3,06.8,0000.0,0008.80,0002.58,0001.95
2022-02-12 22:25:00,,0830.1,4.99,0.00,25.4,24.5,00.0,34.3,27.3,06.6,0000.0,0008.95,0002.65,0001.95
2022-02-12 22:26:00,,0830.1,5.00,0.00,25.4,24.5,00.0,34.3,27.3,06.2,0000.0,0009.22,0002.68,0001.97
2022-02-12 22:27:00,,0830.1,5.00,0.00,25.4,24.6,00.0,34.3,27.3,06.3,0000.0,0009.22,0002.68,0001.95
2022-02-12 22:28:00,,0830.1,5.01,0.00,25.4,24.5,00.0,34.3,27.3,06.4,0000.0,0009.22,0002.71,0001.94
2022-02-12 22:29:00,,0830.2,5.01,0.00,25.4,24.5,00.0,34.3,27.3,06.8,0000.0,0008.86,0002.73,0001.91
2022-02-12 22:30:00,,0830.2,4.99,0.00,25.4,24.5,00.0,34.3,27.3,07.0,0000.0,0008.30,0002.66,0001.86
2022-02-12 22:31:00,,0830.2,5.01,0.00,25.4,24.5,00.0,34.3,27.2,07.1,0000.0,0008.08,0002.64,0001.84
2022-02-12 22:32:00,,0830.1,4.99,0.00,25.4,24.5,00.0,34.3,27.2,06.6,0000.0,0008.10,0002.66,0001.82
2022-02-12 22:33:00,,0830.2,5.02,0.00,25.4,24.5,00.0,34.3,27.2,06.3,0000.0,0008.22,0002.56,0001.77
2022-02-12 22:34:00,,0830.2,4.99,0.00,25.4,24.5,00.0,34.3,27.3,06.1,0000.0,0005.92,0002.44,0001.73
2022-02-12 22:35:00,,0830.2,5.00,0.00,25.4,24.5,00.0,34.3,27.2,06.1,0000.0,0005.67,0002.37,0001.71
2022-02-12 22:36:00,,0830.2,5.00,0.00,25.4,24.5,00.0,34.3,27.2,05.9,0000.0,0005.40,0002.30,0001.69
2022-02-12 22:37:00,,0830.2,4.99,0.00,25.4,24.5,00.0,34.3,27.2,06.2,0000.0,0004.97,0002.34,0001.73
2022-02-12 22:38:00,,0830.2,4.99,0.00,25.3,24.5,00.0,34.3,27.2,06.3,0000.0,0005.54,0002.58,0001.88
2022-02-12 22:39:00,,0830.3,5.02,0.00,25.4,24.5,00.0,34.3,27.2,06.2,0000.0,0005.70,0002.66,0001.97
2022-02-12 22:40:00,,0830.3,4.99,0.00,25.4,24.5,00.0,34.3,27.2,06.4,0000.0,0005.74,0002.74,0002.07
2022-02-12 22:41:00,,0830.3,5.00,0.00,25.4,24.5,00.0,34.3,27.2,06.2,0000.0,0006.59,0002.82,0002.14
2022-02-12 22:42:00,,0830.2,5.00,0.00,25.4,24.5,00.0,34.3,27.2,06.0,0000.0,0007.02,0002.81,0002.11
2022-02-12 22:43:00,,0830.2,4.99,0.00,25.3,24.5,00.0,34.3,27.2,06.0,0000.0,0007.17,0002.79,0002.09
2022-02-12 22:44:00,,0830.2,5.01,0.00,25.3,24.5,00.0,34.3,27.2,05.8,0000.0,0006.48,0002.79,0002.09
2022-02-12 22:45:00,,0830.2,5.01,0.00,25.3,24.5,00.0,34.3,27.2,05.8,0000.0,0006.57,0002.79,0002.07
2022-02-12 22:46:00,,0830.2,4.99,0.00,25.3,24.5,00.0,34.2,27.2,06.1,0000.0,0007.56,0002.88,0002.09
2022-02-12 22:47:00,,0830.2,5.00,0.00,25.3,24.4,00.0,34.2,27.2,06.2,0000.0,0008.74,0002.97,0002.16
2022-02-12 22:48:00,,0830.2,5.00,0.00,25.3,24.4,00.0,34.2,27.2,06.3,0000.0,0009.50,0003.10,0002.26
2022-02-12 22:49:00,,0830.2,5.00,0.00,25.3,24.4,00.0,34.2,27.1,06.5,0000.0,0009.79,0003.17,0002.31
2022-02-12 22:50:00,,0830.2,5.00,0.00,25.3,24.4,00.0,34.2,27.1,07.0,0000.0,0009.65,0003.23,0002.44
2022-02-12 22:51:00,,0830.2,5.00,0.00,25.3,24.4,00.0,34.2,27.1,07.3,0000.0,0010.22,0003.38,0002.65
2022-02-12 22:52:00,,0830.2,5.02,0.00,25.3,24.4,00.0,34.2,27.1,07.5,0000.0,0010.59,0003.54,0002.87
2022-02-12 22:53:00,,0830.3,4.99,0.00,25.3,24.4,00.0,34.2,27.2,07.3,0000.0,0010.33,0003.73,0003.12
2022-02-12 22:54:00,,0830.2,5.01,0.00,25.3,24.4,00.0,34.2,27.2,06.8,0000.0,0010.75,0003.91,0003.27
2022-02-12 22:55:00,,0830.3,4.99,0.00,25.3,24.4,00.0,34.2,27.1,06.4,0000.0,0012.12,0003.98,0003.32
2022-02-12 22:56:00,,0830.4,4.98,0.00,25.3,24.4,00.0,34.2,27.1,06.6,0000.0,0013.04,0004.16,0003.40
2022-02-12 22:57:00,,0830.4,5.01,0.00,25.3,24.4,00.0,34.2,27.1,06.8,0000.0,0013.13,0004.29,0003.53
2022-02-12 22:58:00,,0830.4,4.98,0.00,25.3,24.4,00.0,34.2,27.1,07.0,0000.0,0012.65,0004.40,0003.64
2022-02-12 22:59:00,,0830.4,5.02,0.00,25.3,24.4,00.0,34.2,27.1,06.6,0000.0,0012.94,0004.50,0003.69
